When you browse on this site, cookies collect data to enhance your experience and personalize the content and advertising you see.
Visit our Privacy Policy to learn more. By continuing to use the site, you agree to this use of cookies and data.
  • In France
  • List of Countries
  • For 7 days
  • Water Temperature
  • Satellite Maps
  • Weather Map
  • Weather Widgets
  • user-avatar
    Login

    Hourly Weather Silistra

    Today, 27 May, Monday

    Time Temperature Precipitation Wind Pressure Humidity
    00:00 +18°C° 0 mm 3 mps 757 mmHg 81%
    01:00 +18°C° 0 mm 3 mps 757 mmHg 81%
    02:00 +17°C° 0 mm 3 mps 757 mmHg 81%
    03:00 +17°C° 0 mm 3 mps 757 mmHg 81%
    04:00 +17°C° 0 mm 2 mps 757 mmHg 82%
    05:00 +17°C° 0 mm 2 mps 757 mmHg 83%
    06:00 +19°C° 0 mm 3 mps 757 mmHg 77%
    07:00 +21°C° 0 mm 3 mps 758 mmHg 71%
    08:00 +24°C° 0 mm 3 mps 758 mmHg 65%
    09:00 +26°C° 0 mm 4 mps 758 mmHg 60%
    10:00 +27°C° 0 mm 4 mps 758 mmHg 54%
    11:00 +29°C° 0 mm 4 mps 758 mmHg 49%
    12:00 +29°C° 0 mm 5 mps 757 mmHg 48%
    13:00 +29°C° 0 mm 5 mps 757 mmHg 47%
    14:00 +29°C° 0 mm 6 mps 757 mmHg 46%
    15:00 +29°C° 0 mm 6 mps 757 mmHg 48%
    16:00 +28°C° 0 mm 6 mps 756 mmHg 50%
    17:00 +27°C° 0 mm 6 mps 756 mmHg 52%
    18:00 +25°C° 0 mm 5 mps 756 mmHg 58%
    19:00 +22°C° 0 mm 5 mps 756 mmHg 64%
    20:00 +19°C° 0 mm 4 mps 756 mmHg 70%
    21:00 +19°C° 0 mm 4 mps 756 mmHg 71%
    22:00 +18°C° 0 mm 4 mps 757 mmHg 72%
    23:00 +18°C° 0 mm 4 mps 757 mmHg 72%

    Tomorrow, 28 May, Tuesday

    Time Temperature Precipitation Wind Pressure Humidity
    00:00 +17°C° 0 mm 4 mps 756 mmHg 75%
    01:00 +17°C° 0 mm 4 mps 756 mmHg 78%
    02:00 +17°C° 0 mm 4 mps 756 mmHg 80%
    03:00 +15°C° 0 mm 4 mps 756 mmHg 83%
    04:00 +15°C° 0 mm 4 mps 755 mmHg 85%
    05:00 +15°C° 0 mm 4 mps 755 mmHg 87%
    06:00 +18°C° 0 mm 4 mps 755 mmHg 79%
    07:00 +20°C° 0 mm 5 mps 755 mmHg 71%
    08:00 +22°C° 0 mm 5 mps 755 mmHg 63%
    09:00 +24°C° 0 mm 6 mps 754 mmHg 58%
    10:00 +27°C° 0 mm 6 mps 754 mmHg 53%
    11:00 +29°C° 0 mm 6 mps 754 mmHg 49%
    12:00 +30°C° 0 mm 6 mps 754 mmHg 48%
    13:00 +30°C° 0 mm 6 mps 753 mmHg 47%
    14:00 +32°C° 0 mm 6 mps 753 mmHg 46%
    15:00 +32°C° 0 mm 6 mps 752 mmHg 48%
    16:00 +30°C° 0 mm 6 mps 752 mmHg 51%
    17:00 +30°C° 0 mm 6 mps 751 mmHg 53%
    18:00 +28°C° 0 mm 6 mps 751 mmHg 59%
    19:00 +24°C° 0 mm 6 mps 751 mmHg 64%
    20:00 +22°C° 0 mm 6 mps 751 mmHg 69%
    21:00 +22°C° 0 mm 6 mps 751 mmHg 70%
    22:00 +21°C° 0 mm 5 mps 752 mmHg 70%
    23:00 +21°C° 0 mm 5 mps 752 mmHg 70%

    Day after tomorrow, 29 May, Wednesday

    Time Temperature Precipitation Wind Pressure Humidity
    00:00 +20°C° 0 mm 5 mps 752 mmHg 70%
    01:00 +20°C° 0 mm 5 mps 752 mmHg 70%
    02:00 +19°C° 0 mm 5 mps 752 mmHg 70%
    03:00 +19°C° 0 mm 4 mps 752 mmHg 70%
    04:00 +18°C° 0 mm 4 mps 752 mmHg 70%
    05:00 +18°C° 0 mm 4 mps 752 mmHg 71%
    06:00 +19°C° 0 mm 4 mps 752 mmHg 70%
    07:00 +21°C° 0 mm 4 mps 752 mmHg 69%
    08:00 +22°C° 0 mm 4 mps 752 mmHg 68%
    09:00 +25°C° 0 mm 4 mps 752 mmHg 62%
    10:00 +27°C° 0 mm 4 mps 752 mmHg 57%
    11:00 +28°C° 0 mm 4 mps 752 mmHg 51%
    12:00 +29°C° 0 mm 3 mps 752 mmHg 48%
    13:00 +30°C° 0 mm 3 mps 752 mmHg 45%
    14:00 +31°C° 0 mm 3 mps 752 mmHg 42%
    15:00 +31°C° 0 mm 3 mps 752 mmHg 44%
    16:00 +30°C° 0 mm 3 mps 752 mmHg 46%
    17:00 +30°C° 0 mm 2 mps 752 mmHg 48%
    18:00 +28°C° 0 mm 2 mps 752 mmHg 52%
    19:00 +27°C° 0 mm 1 mps 752 mmHg 56%
    20:00 +25°C° 0 mm 1 mps 752 mmHg 60%
    21:00 +25°C° 0 mm 1 mps 753 mmHg 62%
    22:00 +24°C° 0 mm 2 mps 753 mmHg 65%
    23:00 +23°C° 0 mm 2 mps 754 mmHg 67%

    30 May, Thursday

    Time Temperature Precipitation Wind Pressure Humidity
    00:00 +23°C° 0 mm 2 mps 754 mmHg 69%
    01:00 +21°C° 0 mm 2 mps 754 mmHg 71%
    02:00 +21°C° 0 mm 2 mps 754 mmHg 73%
    03:00 +21°C° 0 mm 1 mps 754 mmHg 74%
    04:00 +21°C° 0 mm 1 mps 754 mmHg 74%
    05:00 +21°C° 0 mm 1 mps 754 mmHg 75%
    06:00 +22°C° 0 mm 1 mps 754 mmHg 70%
    07:00 +24°C° 0 mm 1 mps 754 mmHg 66%
    08:00 +25°C° 0 mm 2 mps 754 mmHg 61%
    09:00 +27°C° 0 mm 2 mps 754 mmHg 57%
    10:00 +28°C° 0 mm 2 mps 754 mmHg 52%
    11:00 +30°C° 0 mm 2 mps 754 mmHg 48%
    12:00 +30°C° 0 mm 2 mps 754 mmHg 46%
    13:00 +31°C° 0 mm 2 mps 754 mmHg 45%
    14:00 +31°C° 0 mm 2 mps 754 mmHg 43%
    15:00 +30°C° 0 mm 2 mps 753 mmHg 47%
    16:00 +30°C° 0 mm 2 mps 753 mmHg 50%
    17:00 +29°C° 0 mm 2 mps 753 mmHg 54%
    18:00 +27°C° 0 mm 2 mps 753 mmHg 58%
    19:00 +26°C° 0 mm 2 mps 753 mmHg 62%
    20:00 +24°C° 0 mm 2 mps 754 mmHg 66%
    21:00 +23°C° 0.4 mm 2 mps 754 mmHg 72%
    22:00 +21°C° 0.4 mm 3 mps 754 mmHg 77%
    23:00 +20°C° 0.4 mm 3 mps 754 mmHg 83%

    31 May, Friday

    Time Temperature Precipitation Wind Pressure Humidity
    00:00 +19°C° 0 mm 3 mps 754 mmHg 87%
    01:00 +19°C° 0 mm 4 mps 754 mmHg 91%
    02:00 +18°C° 0 mm 4 mps 754 mmHg 94%
    03:00 +17°C° 0.2 mm 4 mps 754 mmHg 95%
    04:00 +17°C° 0.2 mm 4 mps 754 mmHg 95%
    05:00 +17°C° 0.2 mm 4 mps 753 mmHg 95%
    06:00 +18°C° 0.3 mm 4 mps 754 mmHg 91%
    07:00 +19°C° 0.3 mm 4 mps 754 mmHg 87%
    08:00 +20°C° 0.3 mm 5 mps 754 mmHg 83%
    09:00 +21°C° 0 mm 4 mps 753 mmHg 77%
    10:00 +23°C° 0 mm 4 mps 753 mmHg 72%
    11:00 +25°C° 0 mm 4 mps 753 mmHg 67%
    12:00 +26°C° 0 mm 4 mps 753 mmHg 63%
    13:00 +27°C° 0 mm 4 mps 752 mmHg 60%
    14:00 +28°C° 0 mm 4 mps 752 mmHg 57%
    15:00 +27°C° 0 mm 4 mps 752 mmHg 58%
    16:00 +27°C° 0 mm 4 mps 752 mmHg 59%
    17:00 +27°C° 0 mm 4 mps 752 mmHg 60%
    18:00 +25°C° 0 mm 4 mps 752 mmHg 65%
    19:00 +24°C° 0 mm 3 mps 752 mmHg 70%
    20:00 +21°C° 0 mm 3 mps 752 mmHg 76%
    21:00 +21°C° 0.1 mm 3 mps 752 mmHg 77%
    22:00 +20°C° 0.1 mm 3 mps 752 mmHg 78%
    23:00 +19°C° 0.1 mm 3 mps 752 mmHg 80%

    1 June, Saturday

    Time Temperature Precipitation Wind Pressure Humidity
    00:00 +18°C° 0 mm 4 mps 752 mmHg 80%
    01:00 +18°C° 0 mm 4 mps 752 mmHg 81%
    02:00 +17°C° 0 mm 4 mps 752 mmHg 82%
    03:00 +17°C° 0.9 mm 4 mps 752 mmHg 85%
    04:00 +16°C° 0.9 mm 3 mps 752 mmHg 89%
    05:00 +14°C° 0.9 mm 3 mps 752 mmHg 92%
    06:00 +16°C° 0.7 mm 3 mps 752 mmHg 91%
    07:00 +17°C° 0.7 mm 3 mps 752 mmHg 90%
    08:00 +17°C° 0.7 mm 3 mps 752 mmHg 88%
    09:00 +18°C° 0 mm 3 mps 752 mmHg 87%
    10:00 +19°C° 0 mm 2 mps 753 mmHg 86%
    11:00 +19°C° 0 mm 2 mps 753 mmHg 84%
    12:00 +19°C° 0.2 mm 2 mps 753 mmHg 84%
    13:00 +19°C° 0.2 mm 3 mps 753 mmHg 83%
    14:00 +19°C° 0.2 mm 3 mps 753 mmHg 82%
    15:00 +19°C° 0.1 mm 3 mps 753 mmHg 81%
    16:00 +19°C° 0.1 mm 3 mps 754 mmHg 81%
    17:00 +19°C° 0.1 mm 3 mps 754 mmHg 81%
    18:00 +18°C° 0.1 mm 4 mps 754 mmHg 80%
    19:00 +17°C° 0.1 mm 4 mps 755 mmHg 79%
    20:00 +15°C° 0.1 mm 4 mps 755 mmHg 78%
    21:00 +14°C° 0 mm 3 mps 756 mmHg 78%
    22:00 +14°C° 0 mm 2 mps 756 mmHg 79%
    23:00 +14°C° 0 mm 1 mps 757 mmHg 80%
    Show more